Regional Weather Roundup
Issued by NWS Boston, MA

Current Version | Previous Version | Text Only | Print | Product List | Glossary Off
Versions: 1 2 3 4 5 6 7 8 9 10 11 12 13 14 15 16 17 18 19 20 21 22 23 24 25 26 27
000 ASUS41 KBOX 231210 RWRBOX REGIONAL WEATHER ROUNDUP NATIONAL WEATHER SERVICE TAUNTON MA 700 AM EST TUE JAN 23 2018 NOTE: "FAIR" INDICATES FEW OR NO CLOUDS BELOW 12,000 FEET WITH NO SIGNIFICANT WEATHER AND/OR OBSTRUCTIONS TO VISIBILITY. MAZALL-231300- EASTERN MASSACHUSETTS CITY SKY/WX TMP DP RH WIND PRES REMARKS BOSTON FOG 32 32 100 N5 29.98S VSB 1/2 WCI 27 6HR MIN TEMP: 32; 6HR MAX TEMP: 39; 6HR PCP: TRACE; BEVERLY FRZ RAIN 31 30 96 N10 29.97F VSB 1/2 WCI 22 LAWRENCE CLOUDY 30 27 88 NE8 30.00F FOG WCI 22 BEDFORD FOG 30 29 96 N5 29.96F VSB 1/2 WCI 25 BLUE HILL N/A 33 33 100 NE12 29.92F WCI 24 NORWOOD FOG 36 35 96 NE3 29.96F VSB 1/2 MARSHFIELD LGT RAIN 39 39 100 CALM 29.95F VSB 1/4 PLYMOUTH CLOUDY 42 41 96 CALM 29.95S FOG TAUNTON FOG 39 39 100 CALM 29.93F VSB 1 NEW BEDFORD LGT RAIN 49 49 100 S8 29.93F $$ MAZALL-231300- CAPE COD AND THE ISLANDS CITY SKY/WX TMP DP RH WIND PRES REMARKS FALMOUTH CLOUDY 46 46 100 S17G24 29.96 HYANNIS MOCLDY 46 45 96 S7 29.94F CHATHAM MOCLDY 48 47 96 S10G22 29.97F PROVINCETOWN CLOUDY 46 45 96 MISG N/A NANTUCKET CLOUDY 47 47 100 SE21 29.97F MARTHAS VNYRD CLOUDY N/A N/A N/A S18G26 29.95F $$ MAZALL-231300- CENTRAL AND WESTERN MASSACHUSETTS CITY SKY/WX TMP DP RH WIND PRES REMARKS WORCESTER FOG 28 27 96 NE8 29.91S VSB 1/4 WCI 20 6HR MIN TEMP: 28; 6HR MAX TEMP: 30; 6HR PCP: 0.01; FITCHBURG CLOUDY 31 30 96 NE3 29.97F FOG ORANGE CLOUDY 32 32 100 E5 29.91F FOG WCI 27 SPRINGFIELD DRZL/FOG 34 33 99 N3 29.87 VSB 1 WESTFIELD CLOUDY 33 33 100 N9 29.89F FOG WCI 25 NORTH ADAMS LGT RAIN 41 37 86 E16G23 29.82F PITTSFIELD LGT RAIN 41 39 93 E7 29.79F FOG $$ RIZALL-231300- RHODE ISLAND CITY SKY/WX TMP DP RH WIND PRES REMARKS PROVIDENCE FOG 39 39 100 NE6 29.93F VSB 1/16 6HR MIN TEMP: 38; 6HR MAX TEMP: 39; 6HR PCP: 0.01; NEWPORT CLOUDY 48 47 96 S13G22 29.92F BLOCK ISLAND CLOUDY 47 46 97 S14 29.93F SMITHFIELD FOG N/A N/A N/A NE8 29.92F VSB 1/4 WESTERLY CLOUDY 46 46 100 SE12 29.92F $$ CTZALL-231300- CONNECTICUT CITY SKY/WX TMP DP RH WIND PRES REMARKS BRADLEY INTL DRZL/FOG 33 33 100 N5 29.89F VSB 1/2 WCI 29 6HR MIN TEMP: 33; 6HR MAX TEMP: 34; 6HR PCP: TRACE; HARTFORD FOG 34 34 100 N6 29.88F VSB 1/4 WCI 29 BRIDGEPORT FOG 40 39 97 E12 29.84F VSB 1/4 DANBURY RAIN 39 39 100 NE6 29.81F VSB 1/2 GROTON CLOUDY 47 45 93 SE6 29.88F NEW HAVEN FOG 38 37 97 NE5 29.85F VSB 1/2 CHESTER FOG 45 45 100 SE3 29.87F VSB<1/4 MERIDEN FOG 34 34 100 N5 29.87F VSB 1/2 WCI 30 WILLIMANTIC FOG 39 38 96 NE3 29.91F VSB 1/2 OXFORD LGT RAIN 38 38 100 E7 29.83F VSB 1/4 $$ MEZ002-015-021-024-NHZ003-005-008-011-012-014-VTZ005-008-231300- NORTHERN NEW ENGLAND CITY SKY/WX TMP DP RH WIND PRES REMARKS PORTLAND ME FRZ DRZL 23 22 96 N7 30.00F WCI 15 6HR MIN TEMP: 22; 6HR MAX TEMP: 23; 6HR PCP: TRACE; BANGOR ME FRZ DRZL 20 18 92 N6 30.08F FOG WCI 12 CONCORD NH CLOUDY 27 25 92 NW3 29.98R FOG MANCHESTER NH FRZ DRZL 27 26 96 CALM 29.97F FOG NASHUA NH FRZ RAIN 28 27 96 NE3 29.98F FOG PORTSMOUTH NH FRZ DRZL 25 24 95 N3 29.97 FOG JAFFREY NH CLOUDY 28 28 100 VRB3 29.89F FOG KEENE NH CLOUDY 31 30 96 NW5 29.91F FOG WCI 26 BURLINGTON VT CLOUDY 38 33 82 SE7 29.74F MT. WASHINGTON FRZ RAIN 32 32 100 S47G60 N/A VSB 0 WCI 15 $$ NYZ052-076-231300- EASTERN NEW YORK CITY SKY/WX TMP DP RH WIND PRES REMARKS ALBANY LGT RAIN 40 37 89 S9 29.76F FOG 6HR MIN TEMP: 38; 6HR MAX TEMP: 40; 6HR PCP: 0.01; NEW YORK CITY LGT RAIN 43 42 97 CALM 29.78F FOG 6HR MIN TEMP: 36; 6HR MAX TEMP: 39; 6HR PCP: 0.03; $$ ANZALL-231300- MARINE OBSERVATIONS STATION/POSITION TIME TEMP WIND PRES VSBY WAVE AIR SEA DIR/SP/G HT/PER (UTC) (F) (DEG/KT/KT) (MB) (MI) (FT/S) BOSTON BUOY 1150 39 40 10/ 8/ 10 1014.0F 4/ 7 BUZZARDS BAY 1100 44 160/ 20/ 21 1013.6F NANTUCKET SOUND 1150 45 37 160/ 17/ 19 1013.9F 2/ 3 MASS BAY-STELLWA 1104 38 39 1014.3F 5/ 6 ISLE OF SHOALS 1100 28 10/ 3/ 3 1015.8F S OF BLOCK IS 1143 40 N/A 4/ 5 $$ ......................KEY......................... SKY/WX - SKY CONDITION/PRESENT WEATHER TMP - TEMPERATURE IN FAHRENHEIT DWPT - DEWPOINT IN FAHRENHEIT RH - RELATIVE HUMIDITY IN PERCENT WIND - DIRECTION AND SPEED IN MPH PRES - MEAN SEA LEVEL PRESSURE IN INCHES OF HG WCI - WIND CHILL INDEX VSB - VISIBILITY IN MILES HX - HEAT INDEX TC - TEMPERATURE IN CELSIUS VRB - VARIABLE WIND DIRECTION N/A - NOT AVAILABLE

USA.gov is the U.S. government's official web portal to all federal, state and local government web resources and services.